Tracking 19706 objects as of 15-Jun-2019
HD Live streaming from Space Station
objects crossing your sky now

SL-14 DEB

Track SL-14 DEB now!
10-day predictions


NORAD ID: 39970
Int'l Code: 1987-068CW
Perigee: 870.8 km
Apogee: 877.0 km
Inclination: 82.5 °
Period: 102.3 minutes
Semi major axis: 7244 km
RCS: 0.0124 m2 (small)
Launch date: August 18, 1987
Source: Commonwealth of Independent States (former USSR) (CIS)
Launch site: PLESETSK MISSILE AND SPACE COMPLEX (PKMTR)

Note: This is SATELLITE DEBRIS
aabbcc
Your satellite tracking list
Your tracking list is empty




NASA's NSSDC Master Catalog

Two Line Element Set (TLE):
1 39970U 87068CW  19165.30521320  .00000395  00000-0  22407-3 0  9990
2 39970  82.5429  15.8337 0004254 318.7290  41.3562 14.07843205768143
Source of the keplerian elements: AFSPC